User: anonymous   Login
Location: Unspecified
(0.0000°N, 0.0000°E)
Time: 01:58:58
(UTC+00:00)
Language:

SWAYAM - Orbit

View from above orbital plane
View from above orbital plane
View from above satellite
View from above satellite

Ground track
Ground track

The orbit data is extracted from the following two-line orbital elements,

1 41607U 16040J   17325.15571478  .00002103  00000-0  96372-4 0  9992
2 41607  97.4421  25.7912 0012605 244.4528 115.5405 15.21528935 78463
Epoch (UTC): 21 November 2017 03:44:13
Eccentricity: 0.0012605
inclination: 97.4421°
perigee height: 492 km
apogee height: 510 km
right ascension of ascending node: 25.7912°
argument of perigee: 244.4528°
revolutions per day: 15.21528935
mean anomaly at epoch: 115.5405°
orbit number at epoch: 7846

The dashed part of the orbit path shows where the satellite is in the earth's shadow,  

DLR